STARLINK-32451, 61857

Orbit data source: Space-Track

STARLINK-32451, 61857 is a payload satellite owned by SpaceX/Seattle (US) in LEO that was launched on Thu, 07 Nov 2024 UTC via an FALCON 9 launch vehicle from the Air Force Eastern Test Range (AFETR). Payloads include a variety of satellites, spacecraft, and rockets equipped with specific instruments for various scientific and technological missions. These include communications satellites like Starlink; space stations such as the ISS; scientific satellites like the Hubble; Earth observation satellites from companies like Planet Labs, Umbra, and HawkEye 360; GPS; miniature CubeSats for education and research; and military/defense satellites.

Loading next visibility...
STARLINK-32451 details
Identifier
61857, 2024-202N
Orbit
LEO
Last TLE update16 hours ago
Origin
Flag of USSpaceX/Seattle (US)
ManufacturerSpaceX/Seattle
MissionOperational spacecraft
Bus & MotorSTARLINK V2M, Unknown motor
Mass730 kg wet, ~700 kg dry
Launch date (UTC)
2024-11-07 (2 months ago)
Launch vehicle
FALCON 9
Launch site
Air Force Eastern Test Range (AFETR)
Object type
Payload
Rocket body
Debris
Shape & HBRUnknown
Radar Cross SectionLarge (>1 m²)

Expand to show TLE details & history

TLE from 16 hours ago
0 STARLINK-32451
1 61857U 24202N   24361.25529758  .00002073  00000-0  56878-4 0  9996
2 61857  43.0000 202.7848 0001488 266.0533  94.0153 15.40693212  8499
Epoch: 2024-12-26T06:07Z
Definitive object data (Epoch: 2024-12-26T06:07:37.71Z)
Latitude-0.00006°
Longitude15.64029°
Altitude443.908 km
Speed7.648 km/s
True Right ascension13h 31m 08s
True Declination0° 00' 00"
Sunlit
Object was in daylight at TLE epoch
Visualization TLE readout
Latitude41.91796°
Longitude118.57268°
Altitude447.916 km
Speed7.649 km/s
Apparent Right ascension15h 25m 32s
Apparent Declination17° 27' 04"
Sunlit
Object is in daylight
Visualization observer readout
Local Sidereal Time21:30:48
Azimuth284.356° WNW
Elevation10.114°
Doppler factor1
Orbital elements
Apogee altitude447.034 km
Perigee altitude445.003 km
Semi-major axis6,824.155 km
Eccentricity0.0001488
Inclination43°
RAAN202.7848°
Arg. of periapsis266.0533°
True anomaly94.03231°
Mean anomaly94.0153°
Eccentric anomaly94.0238°
Mean motion3.85008 °/min
BSTAR0.000056878
Orbital period93.5 mins
Loading maneuver chart data...
Loading historical data...
Loading historical data...
Loading historical data...
Loading historical data...
Loading historical data...
Loading historical data...
Loading historical data...

STARLINK-32451 Visibility forecast

Observer location: undefined°, undefined

Span
Click to sort rows by Start time (UTC) header in descending order
Start Az.
Max El. time (UTC)
Max El. Az.
Max El.
End time (UTC)
End Az.
5 mins2024-12-26 22:08:42.269Z280.333° WNW2024-12-26 22:10:42.269Z242.972° WSW38.476°2024-12-26 22:13:42.269Z127.431° SE
4 mins2024-12-27 16:34:42.269Z199.983° SSW2024-12-27 16:36:42.269Z137.589° SSE28.548°2024-12-27 16:38:42.269Z91.805° ESE
5 mins2024-12-27 18:12:42.269Z270.584° WNW2024-12-27 18:14:42.269Z28.466° NE41.148°2024-12-27 18:17:42.269Z70.196° E
5 mins2024-12-27 19:50:42.269Z296.664° NW2024-12-27 19:52:42.269Z8.484° NNE37.725°2024-12-27 19:55:42.269Z80.215° E
5 mins2024-12-27 21:28:42.269Z282.937° WNW2024-12-27 21:30:42.269Z223.754° SW43.44°2024-12-27 21:33:42.269Z118.39° SE
|